TimeCST,TemperatureF,Dew PointF,Humidity,Sea Level PressureIn,VisibilityMPH,Wind Direction,Wind SpeedMPH,Gust SpeedMPH,PrecipitationIn,Events,Conditions,WindDirDegrees,DateUTC
12:53 AM,53.1,41.0,64,29.40,10.0,SSW,16.1,-,N/A,,Clear,200,2011-11-13 06:53:00
1:53 AM,51.1,39.9,66,29.40,10.0,South,11.5,-,N/A,,Clear,190,2011-11-13 07:53:00
2:53 AM,48.9,41.0,74,29.38,10.0,South,8.1,-,N/A,,Clear,190,2011-11-13 08:53:00
3:53 AM,50.0,44.1,80,29.33,10.0,South,12.7,-,N/A,,Clear,170,2011-11-13 09:53:00
4:53 AM,51.1,46.9,86,29.31,10.0,South,15.0,-,N/A,,Clear,170,2011-11-13 10:53:00
5:53 AM,52.0,48.0,86,29.29,10.0,South,15.0,-,N/A,,Clear,170,2011-11-13 11:53:00
6:53 AM,50.0,46.9,89,29.29,10.0,SSW,8.1,-,N/A,,Clear,200,2011-11-13 12:53:00
7:53 AM,57.0,45.0,64,29.29,10.0,SW,21.9,31.1,N/A,,Clear,220,2011-11-13 13:53:00
8:53 AM,57.9,42.1,56,29.31,10.0,WSW,23.0,34.5,N/A,,Clear,240,2011-11-13 14:53:00
9:53 AM,60.1,39.9,47,29.31,10.0,SW,18.4,27.6,N/A,,Clear,220,2011-11-13 15:53:00
10:53 AM,62.1,39.9,44,29.37,10.0,SW,26.5,35.7,N/A,,Clear,230,2011-11-13 16:53:00
11:53 AM,59.0,35.1,41,29.37,10.0,WSW,26.5,32.2,N/A,,Clear,240,2011-11-13 17:53:00
12:53 PM,57.0,30.0,36,29.39,10.0,WSW,24.2,33.4,N/A,,Clear,250,2011-11-13 18:53:00
1:53 PM,59.0,28.9,32,29.42,10.0,West,25.3,38.0,N/A,,Clear,260,2011-11-13 19:53:00
2:53 PM,57.0,30.0,36,29.46,10.0,West,19.6,27.6,N/A,,Clear,260,2011-11-13 20:53:00
3:53 PM,55.9,30.9,39,29.49,10.0,SW,18.4,-,N/A,,Clear,230,2011-11-13 21:53:00
4:53 PM,51.1,32.0,48,29.52,10.0,WSW,10.4,-,N/A,,Clear,240,2011-11-13 22:53:00
5:53 PM,51.1,33.1,50,29.55,10.0,West,11.5,-,N/A,,Clear,260,2011-11-13 23:53:00
6:53 PM,48.9,35.1,59,29.58,10.0,WSW,10.4,-,N/A,,Clear,250,2011-11-14 00:53:00
7:53 PM,48.0,34.0,58,29.61,10.0,West,11.5,-,N/A,,Clear,260,2011-11-14 01:53:00
8:53 PM,44.1,33.1,65,29.62,10.0,WSW,8.1,-,N/A,,Clear,250,2011-11-14 02:53:00
9:53 PM,43.0,33.1,68,29.63,10.0,West,5.8,-,N/A,,Clear,270,2011-11-14 03:53:00
10:53 PM,42.1,32.0,67,29.61,10.0,WNW,4.6,-,N/A,,Clear,290,2011-11-14 04:53:00
11:53 PM,36.0,30.9,82,29.63,10.0,Calm,Calm,-,N/A,,Clear,0,2011-11-14 05:53:00